Weather in Owings Mills

United States     39°25′08″N   76°46′48″W
temp.,
°C
wind,
m/s
gust,
m/s
humid.,
%
clouds,
%
prec.,
mm/h
press.,
hPa
HPBL,
m
22 june, tue
tue2223:00+21wsw2795100 2.1 1006231
02:00+20w2994100 2.1 1005334
05:00+19nw3995100 0.0 1006242
08:00+19nnw4991100 0.2 1007460
11:00+17n5997100 5.5 1009545
14:00+15nnw4895100 9.6 1011585
17:00+18nw4979100 0.1 10111110
20:00+16wnw4969100 0.1 1014570
23 june, wed
wed2323:00+13nnw2272100 0.0 101735
02:00+12n22710 0.0 101831
05:00+11nw23730 0.0 102058
08:00+14nnw34650 0.0 1023216
11:00+19n23480 0.0 10241155
14:00+21nne22430 0.0 10241654
17:00+21ne21450 0.0 10241540
20:00+18ene12650 0.0 102521
24 june, thu
thu2423:00+15sse11664 0.0 102610
02:00+14ese11725 0.0 102612
05:00+12ene1183100 0.0 102611
08:00+16ese1273100 0.0 1028196
11:00+21ese34525 0.0 10281041
14:00+24e34420 0.0 10261367
17:00+24ese45450 0.0 10241309
20:00+20se23600 0.0 102546
25 june, fri
fri2523:00+17ese25902 0.0 1026121
02:00+16ene239854 0.0 1025101
05:00+17nne1196100 0.1 102586
08:00+18ene1193100 0.1 1025146
11:00+21ssw2380100 0.1 1025797
14:00+24sse346699 0.1 10241223
17:00+27sse465418 0.0 10221646
20:00+23sse4107226 0.0 1021384
26 june, sat
sat2623:00+21sse3129272 0.0 1021387
02:00+21s4129681 0.3 1021410
05:00+20s41397100 0.0 1021421
08:00+22s41292100 0.0 1021508
11:00+27ssw6967100 0.1 10221240
14:00+29ssw5858100 0.6 10201728
17:00+26sse3866100 0.3 1019412
20:00+25sse6127199 0.3 1019577